Voltar ao catálogo

FLOCK 4H 7

AtivoCiênciaSSO
NORAD 66710·PAYLOAD·🇺🇸 United States

Lançado Nov 28, 2025 de Vandenberg Space Force Base

Loading…

Próximas Passagens (próximas 24 horas)

TLE

AtualizadoSource: CelesTrak SupGP

Época: Sep 14, 2026, 12:45 UTC

1 66710C 25276AW  26257.53136574  .00009207  00000+0  41559-3 0  2579
2 66710  97.4113 329.6136 0003834  85.8203 129.4591 15.21049978    19

Acompanhe FLOCK 4H 7 em tempo real com AllMySat

Download on the App Store